Location: LDNL
(36.4545°S, 141.6685°E)
Time: 14:39:17
(UTC+11:00)

Courier 1B Rocket - Pass Details

Date: 02 February 2023
Orbit: 920 x 1202 km, 28.2° (Epoch: 25 March)

Event Time Altitude Azimuth Distance (km) Brightness Sun altitude
Rises 11:01:08 0° 273° (W) 4,078 7.9 48.6°
Reaches altitude 10° 11:04:24 10° 283° (WNW) 3,087 7.4 49.2°
Maximum altitude 11:10:50 30° 341° (NNW) 1,897 6.9 50.4°
Drops below altitude 10° 11:16:58 10° 39° (NE) 2,918 8.2 51.6°
Sets 11:19:58 0° 49° (NE) 3,823 8.7 52.2°
